Skip Page Navigation
NASA JPL Caltech
NASA Logo - Jet Propulsion Laboratory + View the NASA Portal
+ Center for Near-Earth Object Studies
JPL Home Earth Solar System Stars & Galaxies Technology
JPL Solar System Dynamics
BODIES ORBITS EPHEMERIDES TOOLS PHYSICAL DATA DISCOVERY FAQ SITE MAP
IMPORTANT: The SSD Announcement email list is now available. Major changes are coming in the near future, including possible hostname and/or URL changes. To be notified of such changes, subscribe to this email list.

Please visit this page for more details.


JPL Small-Body Database Browser
Search: [ help ]  
65193 (2002 CA263)
Classification: Outer Main-belt Asteroid          SPK-ID: 2065193
Ephemeris | Orbit Diagram | Orbital Elements | Mission Design | Physical Parameters | Discovery Circumstances | Close-Approach Data ]

[ show orbit diagram ]
Orbital Elements at Epoch 2458600.5 (2019-Apr-27.0) TDB
Reference: JPL 17 (heliocentric ecliptic J2000)
 Element Value Uncertainty (1-sigma)   Units 
e .02934136364839427 4.7525e-08  
a 3.244895862159493 3.3983e-08 au
q 3.149686192666701 1.6137e-07 au
i 16.14380802906603 5.149e-06 deg
node 34.21677817176352 1.7285e-05 deg
peri 193.3509809430592 9.8883e-05 deg
M 263.7086828725564 0.00010014 deg
tp 2459171.563231835084
(2020-Nov-18.06323184)
0.00059613 TDB
period 2135.008322594
5.85
3.354e-05
9.183e-08
d
yr
n .1686176096787323 2.6489e-09 deg/d
Q 3.340105531652285 3.4981e-08 au
  Orbit Determination Parameters
   # obs. used (total)      539  
   data-arc span      7055 days (19.32 yr)  
   first obs. used      1999-10-08  
   last obs. used      2019-01-31  
   planetary ephem.      DE431  
   SB-pert. ephem.      SB431-N16  
   condition code      0  
   norm. resid. RMS      .56198  
   source      ORB  
   producer      Otto Matic  
   solution date      2019-Jul-13 04:04:37  

Additional Information
 Earth MOID = 2.14309 au 
 Jupiter MOID = 1.62979 au 
 T_jup = 3.120 
[ show covariance matrix ]

Ephemeris | Orbit Diagram | Orbital Elements | Mission Design | Physical Parameters | Discovery Circumstances | Close-Approach Data ]

Physical Parameter Table
Parameter Symbol Value Units Sigma Reference Notes
absolute magnitude H 14.3   n/a MPO432204  
diameter diameter 8.324 km 0.120 urn:nasa:pds:neowise_diameters_albedos::2.0[mainbelt] (http://adsabs.harvard.edu/abs/2011ApJ...741...68M)  
geometric albedo albedo 0.058   0.010 urn:nasa:pds:neowise_diameters_albedos::2.0[mainbelt] (http://adsabs.harvard.edu/abs/2011ApJ...741...68M)  

65193 (2002 CA263)          Discovered 2002-Feb-06 by LINEAR at Socorro
Reference: 20030614/Numbers.arcLast Updated: 2004-04-19

[ show close-approach data ]
Ephemeris | Orbit Diagram | Orbital Elements | Mission Design | Physical Parameters | Discovery Circumstances | Close-Approach Data ]
ABOUT SSD CREDITS/AWARDS PRIVACY/COPYRIGHT GLOSSARY LINKS
FirstGov 2020-Jan-26 17:50 UT
(server date/time)  
NASA Home Page
Site Manager:   Ryan S. Park
Webmaster  Alan B. Chamberlin